Temperature
13 13 13 13 13 14 14 14 14 14 14 13 13 13 13 12 12 12 12 12 12 11 11 11 11 11 10 10 10 10 10 10 10 10 9 9 10 9 10 9 9 9 9
13 13 13 13 13 13 14 14 14 13 13 13 13 13 13 12 12 12 12 11 11 11 11 11 11 10 10 10 10 10 9 9 9 9 8 9 9 9 9 9 9 9 9
13 12 12 12 13 13 13 13 13 13 13 13 13 12 12 12 11 11 11 11 11 11 11 10 10 10 10 10 9 9 9 9 8 8 7 8 9 8 8 8 8 8 8
12 12 12 12 12 13 13 13 13 13 12 12 12 12 12 11 11 11 11 11 10 10 10 10 10 9 9 9 9 9 8 8 8 7 7 7 7 7 7 8 8 7 7
12 12 12 12 12 12 12 12 12 12 12 12 12 12 11 11 11 10 10 10 10 10 10 10 9 9 9 9 8 8 8 7 7 7 7 6 6 6 6 6 7 7 7
11 11 11 11 11 12 12 12 12 12 12 12 11 11 11 11 10 10 10 9 9 9 9 9 9 8 8 8 8 7 7 7 7 6 6 6 5 5 5 5 5 6 6
11 11 11 11 11 11 12 11 11 11 11 11 11 11 10 10 10 10 9 9 9 9 9 8 8 8 8 8 7 7 7 7 6 6 6 5 5 5 5 4 4 5 5
11 10 10 10 10 11 11 11 11 11 11 10 10 10 10 10 10 10 9 9 8 8 8 8 8 7 7 7 7 7 6 6 6 6 5 5 5 4 4 4 4 4 4
10 10 10 10 10 10 10 10 10 10 10 10 10 10 10 9 9 9 9 8 8 8 8 7 7 7 7 7 7 6 6 6 5 5 5 4 4 4 4 4 3 3 3
10 9 10 10 10 10 10 10 10 10 10 9 9 9 9 9 9 9 8 8 8 7 7 7 7 7 6 6 6 6 5 5 5 5 4 4 4 4 3 3 3 3 2
9 9 9 9 9 9 9 9 9 9 9 9 9 9 9 8 8 8 8 7 7 7 7 6 6 6 6 6 6 5 5 5 4 4 4 3 3 3 3 3 2 2 2
9 9 9 8 8 8 8 9 9 8 8 8 8 8 8 8 7 7 7 7 7 6 6 6 6 6 6 5 5 5 5 4 4 4 3 3 3 2 2 2 2 2 2
8 8 8 8 8 8 8 8 8 8 8 8 8 8 7 7 7 7 7 6 6 6 6 5 5 5 5 5 5 4 4 4 3 3 3 3 2 2 2 2 1 1 1
8 7 7 7 7 7 7 7 7 7 7 7 7 7 7 7 6 6 6 6 5 5 5 5 5 4 4 4 4 4 3 3 3 3 2 2 2 1 1 1 1 1 1
7 6 6 6 6 6 7 7 7 7 7 7 6 6 6 6 6 6 5 5 5 5 4 4 4 4 4 4 3 3 3 2 2 2 2 1 1 1 1 0 0 0 0
6 6 6 6 6 6 6 6 6 6 6 6 6 6 6 5 5 5 5 4 4 4 4 4 3 3 3 3 3 2 2 2 1 1 1 1 1 0 0 0 -0 -0 -0
6 5 5 5 5 5 5 5 5 5 5 5 5 5 5 5 4 4 4 4 3 3 3 3 3 3 2 2 2 2 1 1 1 1 1 0 0 -0 -0 -0 -0 -1 -1
5 5 5 5 5 5 5 5 5 5 5 4 4 4 4 4 4 4 3 3 3 3 3 2 2 2 2 2 1 1 1 1 0 0 0 -0 -0 -1 -1 -1 -1 -1 -1
5 5 5 5 4 4 4 4 4 4 4 4 3 3 3 3 3 3 3 2 2 2 2 2 2 1 1 1 1 1 0 -0 -0 -0 -0 -1 -1 -1 -1 -2 -2 -2 -1
4 4 4 4 4 4 4 4 4 3 3 3 3 3 3 2 2 2 2 2 2 1 1 1 1 0 0 0 0 -0 -1 -1 -1 -1 -1 -1 -1 -1 -2 -2 -2 -2 -2
4 4 4 4 4 4 3 3 3 3 3 3 2 2 2 2 2 1 1 1 1 1 1 0 0 -0 -0 -0 -1 -1 -2 -2 -2 -1 -1 -1 -2 -2 -2 -2 -2 -2 -2
3 3 3 3 3 3 3 3 2 2 2 2 2 2 1 1 1 1 0 0 0 -0 -0 -0 -1 -1 -1 -1 -1 -2 -2 -2 -2 -2 -2 -2 -2 -2 -2 -2 -2 -3 -3
2 2 2 2 2 2 2 2 2 1 1 1 1 1 1 0 0 -0 -0 -0 -1 -1 -1 -1 -2 -2 -2 -2 -2 -2 -2 -2 -3 -2 -2 -2 -2 -3 -3 -3 -3 -3 -3
2 2 2 2 1 1 1 1 1 1 0 0 0 0 -0 -0 -1 -1 -1 -1 -1 -2 -2 -2 -3 -3 -3 -3 -3 -3 -3 -3 -3 -3 -3 -3 -3 -3 -3 -3 -3 -3 -4
1 1 1 1 1 0 0 0 -0 -0 -0 -0 -0 -1 -1 -1 -1 -1 -2 -2 -2 -2 -3 -3 -3 -3 -3 -3 -3 -3 -3 -3 -3 -3 -3 -3 -3 -3 -3 -3 -4 -4 -4
0 0 0 0 0 -0 -0 -0 -1 -1 -1 -1 -1 -1 -2 -2 -2 -2 -2 -2 -2 -3 -3 -3 -3 -4 -4 -4 -4 -4 -4 -4 -4 -4 -4 -4 -4 -4 -4 -4 -4 -4 -4
Wind_Speed
9 7 7 8 8 8 8 9 9 9 8 7 6 6 5 4 3 2 3 3 3 3 2 2 2 2 2 3 3 3 4 4 4 5 6 6 6 6 5 6 6 6 7
9 7 7 7 8 8 8 9 9 9 9 8 7 5 5 4 3 2 2 3 3 3 2 3 2 2 2 3 3 3 3 3 3 4 5 5 5 5 5 6 6 7 6
11 9 8 8 8 8 8 8 9 9 9 9 7 6 4 4 3 3 2 2 3 3 3 3 2 2 3 2 3 4 4 4 3 4 4 5 5 5 5 6 7 7 7
10 9 9 8 8 7 6 7 8 8 9 9 9 9 7 6 5 4 3 2 2 3 2 2 3 3 2 3 3 4 4 5 4 4 5 6 6 6 6 5 6 8 8
10 9 9 9 7 6 6 6 7 8 9 9 9 9 7 6 4 4 4 3 2 2 2 2 2 3 2 3 3 4 4 4 5 5 5 6 6 8 8 9 8 8 8
9 9 8 7 6 5 5 6 7 7 8 9 9 9 9 8 7 6 5 3 2 2 2 2 2 3 3 3 4 4 5 5 6 5 5 5 6 6 7 10 10 9 8
8 8 8 7 7 6 6 6 7 7 7 8 8 8 9 8 8 6 5 4 3 2 3 2 3 3 3 3 4 4 5 6 6 6 6 6 7 7 8 9 10 11 9
7 7 7 7 7 7 6 7 7 7 7 7 7 7 7 6 5 6 5 4 3 3 3 3 3 3 3 4 4 4 5 6 6 7 7 6 7 7 7 8 9 10 10
6 6 6 6 6 7 7 7 7 7 7 7 7 6 6 5 5 4 4 3 3 2 2 3 3 3 3 4 4 4 6 6 6 7 7 7 7 7 8 8 8 9 10
4 5 6 6 6 6 6 7 7 7 7 6 6 5 5 4 4 3 3 3 2 2 2 3 3 3 4 4 4 5 6 6 7 6 8 8 7 7 8 8 9 9 10
4 5 5 6 6 6 6 6 6 7 6 6 6 5 4 4 3 3 2 2 2 1 2 2 3 4 4 4 5 5 6 7 7 7 8 9 9 8 8 8 9 9 10
3 4 4 5 6 6 6 6 6 6 6 5 5 5 4 3 3 2 2 1 1 1 2 2 3 4 5 5 5 6 7 7 8 8 8 9 7 9 8 8 9 9 10
2 3 4 5 5 6 6 6 6 5 5 5 5 4 4 3 2 2 1 1 1 1 2 3 4 5 5 6 6 6 7 7 7 8 8 9 9 9 8 9 9 9 9
3 3 4 4 5 5 6 6 5 5 5 5 4 4 3 3 2 1 1 1 1 1 2 3 4 5 5 6 6 6 7 7 7 8 8 9 9 9 10 9 10 9 10
4 4 4 4 4 5 5 5 5 5 5 5 4 4 3 2 2 2 1 1 1 2 2 3 4 5 5 5 6 7 7 7 8 8 9 9 9 11 10 9 10 10 9
4 4 4 4 5 5 5 5 4 4 5 5 4 3 3 2 2 1 1 1 2 2 3 4 4 5 4 6 8 8 8 8 8 9 9 9 10 11 12 13 13 12 11
5 4 4 4 4 4 5 5 5 5 4 4 3 3 2 2 2 1 1 2 3 3 3 4 5 5 6 7 9 9 8 8 8 9 9 8 8 10 10 11 13 13 14
4 4 3 3 4 4 4 4 5 4 4 3 2 2 2 2 1 2 2 2 3 3 4 4 5 6 7 8 9 9 8 8 8 9 9 9 10 9 10 10 11 11 11
3 3 3 4 4 4 4 5 5 4 4 3 2 1 2 2 2 2 3 3 3 3 4 5 5 6 7 8 9 9 7 7 8 8 9 9 10 11 12 11 11 12 11
1 2 3 4 4 4 5 5 4 3 3 2 1 1 1 2 2 2 2 3 3 3 4 5 5 6 7 8 9 9 6 7 7 7 8 9 10 12 12 10 10 11 11
2 3 3 3 3 4 5 4 4 3 2 2 1 1 1 1 2 2 2 2 3 3 4 5 5 6 7 8 9 9 6 6 7 7 7 7 11 12 13 12 10 11 12
2 3 3 3 3 4 4 4 3 2 2 2 1 1 1 1 1 2 2 3 3 4 4 5 5 5 6 7 8 9 9 9 8 7 7 8 12 12 13 10 11 13 11
2 2 3 4 3 3 3 3 2 2 2 2 1 0 0 1 1 2 2 2 3 3 4 4 5 5 5 6 9 10 10 11 8 7 10 12 13 12 10 10 11 10 7
2 3 4 4 3 2 2 2 2 2 2 1 1 0 1 1 2 2 2 3 3 3 4 4 5 6 6 6 6 6 7 8 8 7 9 10 10 8 9 8 7 5 6
2 2 3 3 3 2 2 2 2 2 1 1 0 0 1 2 2 2 3 3 4 4 5 5 5 6 6 7 10 8 7 7 7 8 6 6 6 6 5 5 5 5 5
2 2 3 3 2 2 2 1 1 1 1 0 1 1 1 2 2 3 3 4 5 7 8 8 7 7 9 11 11 11 11 11 10 7 5 6 6 6 6 6 6 5 5
Wind_Direction
230 220 212 209 206 202 197 194 191 185 179 177 177 179 181 179 174 172 174 180 181 183 190 209 222 235 237 250 263 268 273 282 290 281 283 275 263 259 259 263 265 266 266
221 212 204 200 201 200 197 196 193 189 187 185 183 183 177 179 175 170 178 185 183 185 191 211 219 227 236 248 256 261 267 275 282 280 285 282 266 254 262 265 266 269 268
219 212 206 201 198 200 199 197 195 191 188 182 174 166 164 169 177 183 187 191 188 194 197 210 223 230 237 245 252 256 259 267 272 275 271 278 276 292 261 262 267 270 273
217 211 206 202 201 201 194 194 193 191 187 182 182 180 184 186 196 190 189 196 201 204 205 216 227 234 242 249 255 259 262 262 263 263 262 267 279 279 282 271 268 274 273
211 208 204 201 200 194 190 188 187 187 186 186 185 185 186 185 180 180 183 193 208 215 216 223 235 240 246 252 258 261 261 260 260 261 263 265 269 266 271 281 287 282 275
208 208 203 196 194 187 182 183 182 185 184 184 184 186 184 182 180 184 188 195 205 223 235 242 245 246 251 254 257 258 258 260 262 262 260 262 263 267 267 273 281 284 284
204 202 196 194 193 187 181 181 180 183 184 183 186 188 188 188 189 191 195 199 208 230 243 247 251 252 254 257 260 258 259 258 260 260 261 261 261 267 268 272 279 281 283
202 200 198 195 191 185 181 179 180 182 182 182 185 186 188 191 194 196 198 202 214 228 240 245 252 259 263 262 261 261 261 260 258 261 261 261 262 262 262 267 276 281 279
201 199 198 194 190 186 184 181 178 179 181 180 179 180 181 182 188 194 200 203 211 224 233 243 254 260 264 266 267 263 262 262 262 262 263 263 261 259 260 261 263 269 279
197 198 196 192 189 185 182 179 178 176 176 176 175 175 178 177 180 184 192 196 204 223 242 249 260 267 271 271 270 270 268 265 264 264 263 264 263 259 257 257 259 259 265
196 196 188 183 179 177 175 174 172 171 170 170 170 168 165 165 170 176 182 182 192 216 245 262 274 277 278 278 276 273 273 271 271 269 266 267 268 266 261 259 259 258 260
195 187 178 173 171 170 168 166 167 167 167 163 161 158 154 159 166 167 174 181 196 247 271 284 284 284 282 281 278 276 275 274 274 274 272 273 274 275 272 266 264 263 263
195 183 176 174 171 168 166 163 163 163 160 156 153 152 155 158 161 163 172 196 219 281 296 292 287 286 285 285 283 280 279 279 278 276 275 276 276 275 277 275 271 270 271
204 195 187 181 174 169 166 162 160 159 158 157 154 157 161 160 157 158 183 235 268 291 300 293 290 288 289 288 289 286 285 282 280 278 275 275 274 275 279 279 277 275 274
203 202 198 187 176 169 167 163 158 156 158 160 161 162 162 160 160 173 195 234 274 287 288 291 293 293 294 293 296 296 292 287 282 280 276 275 275 274 275 277 282 279 274
208 204 197 182 178 174 170 163 162 157 157 160 162 162 165 166 174 192 220 260 280 284 288 292 294 298 298 302 302 298 289 286 280 280 280 279 276 276 276 275 278 276 273
206 200 197 189 180 174 167 163 158 150 152 156 159 162 166 176 197 209 234 258 272 282 289 293 296 298 301 304 304 303 294 287 283 281 283 283 282 281 281 280 278 274 269
206 195 187 177 166 156 152 146 144 146 147 150 157 160 171 191 217 242 254 263 272 282 290 296 298 301 306 309 308 306 297 288 284 280 280 281 281 282 285 284 281 278 274
209 188 174 163 156 153 148 143 140 141 146 152 157 163 183 204 224 245 261 269 274 284 293 298 298 299 304 311 311 310 301 292 290 286 281 281 281 284 286 284 282 282 282
159 153 149 146 148 150 146 143 145 150 162 168 172 185 210 226 240 253 266 273 277 284 296 296 295 296 300 307 309 310 304 299 296 293 287 281 284 290 291 284 283 284 289
118 133 142 150 153 151 150 150 152 166 173 165 172 203 228 245 258 271 274 278 284 290 293 293 295 297 298 302 308 313 308 302 298 294 294 292 297 296 292 288 283 285 291
106 126 140 143 142 146 149 153 160 160 152 158 174 201 261 290 280 275 285 290 290 291 294 296 299 301 303 305 309 313 311 309 300 296 296 299 304 302 298 292 290 293 293
108 124 133 128 125 136 150 156 156 141 145 152 159 131 346 314 288 279 285 292 289 288 294 296 299 305 309 308 309 309 310 310 306 298 298 301 302 302 298 295 293 291 286
114 127 127 124 119 122 132 147 143 147 155 159 154 47 339 315 303 296 284 283 285 287 290 294 298 302 304 306 311 310 309 308 307 302 299 297 296 295 294 297 295 288 283
113 123 125 124 120 114 112 111 123 139 144 149 147 331 309 292 293 294 290 288 287 290 290 291 293 297 299 308 314 313 310 311 308 308 301 300 302 303 303 302 301 298 296
116 122 123 122 118 110 95 78 90 123 137 194 284 288 284 287 287 292 299 293 290 301 301 301 301 299 301 309 313 313 312 313 313 309 298 302 303 302 303 305 305 302 300
Height
1471 1472 1473 1474 1476 1478 1479 1481 1483 1485 1487 1488 1490 1491 1492 1494 1495 1496 1496 1497 1497 1497 1497 1497 1497 1497 1497 1497 1496 1496 1495 1494 1494 1493 1491 1490 1488 1487 1486 1485 1484 1483 1482
1466 1467 1468 1470 1471 1473 1475 1477 1479 1481 1483 1484 1486 1488 1489 1490 1491 1492 1493 1494 1494 1494 1494 1494 1494 1494 1494 1494 1493 1492 1492 1491 1490 1490 1489 1487 1486 1483 1482 1481 1479 1478 1478
1460 1462 1464 1465 1467 1469 1471 1473 1475 1477 1479 1481 1483 1485 1486 1487 1488 1489 1490 1490 1491 1491 1491 1491 1491 1491 1491 1490 1489 1489 1489 1488 1487 1487 1487 1485 1482 1480 1477 1476 1475 1474 1473
1456 1457 1459 1461 1463 1465 1467 1469 1471 1473 1475 1477 1479 1480 1481 1483 1484 1485 1486 1487 1488 1488 1488 1488 1488 1488 1487 1486 1486 1486 1485 1484 1483 1483 1482 1482 1480 1479 1474 1472 1471 1469 1468
1451 1453 1455 1457 1459 1461 1463 1465 1468 1470 1471 1473 1475 1477 1478 1480 1481 1482 1483 1484 1484 1485 1485 1485 1484 1484 1483 1483 1482 1482 1481 1480 1479 1479 1478 1477 1476 1474 1473 1468 1466 1465 1463
1447 1449 1451 1454 1456 1458 1460 1462 1464 1466 1468 1469 1471 1473 1475 1476 1477 1478 1479 1480 1481 1481 1481 1481 1481 1480 1480 1479 1478 1478 1477 1476 1475 1474 1473 1472 1471 1469 1468 1465 1462 1459 1457
1444 1445 1447 1450 1452 1454 1456 1458 1461 1462 1464 1465 1467 1469 1471 1473 1474 1475 1476 1476 1477 1477 1477 1477 1477 1476 1476 1475 1474 1473 1473 1472 1470 1469 1468 1467 1466 1465 1463 1461 1457 1454 1452
1440 1442 1444 1446 1448 1450 1452 1455 1457 1459 1460 1462 1464 1465 1467 1469 1470 1471 1472 1472 1473 1473 1474 1473 1473 1472 1472 1471 1470 1469 1468 1467 1465 1464 1463 1461 1460 1459 1458 1456 1454 1450 1447
1437 1439 1441 1444 1446 1447 1449 1452 1453 1455 1457 1459 1460 1462 1464 1465 1467 1468 1469 1469 1469 1470 1470 1470 1469 1468 1467 1466 1465 1464 1463 1462 1460 1459 1457 1456 1454 1453 1452 1451 1450 1448 1443
1435 1437 1439 1441 1443 1445 1447 1449 1451 1452 1454 1455 1457 1459 1461 1462 1463 1464 1465 1465 1466 1466 1466 1466 1465 1464 1463 1462 1461 1459 1458 1456 1455 1453 1452 1450 1449 1447 1446 1445 1443 1442 1439
1433 1435 1436 1438 1440 1442 1444 1445 1447 1449 1451 1453 1454 1456 1457 1459 1460 1460 1461 1461 1462 1462 1462 1461 1461 1460 1459 1457 1456 1454 1452 1451 1449 1447 1446 1444 1443 1441 1440 1438 1437 1435 1433
1431 1433 1434 1436 1437 1439 1441 1443 1444 1446 1448 1450 1451 1453 1454 1456 1457 1457 1458 1458 1458 1458 1458 1457 1457 1456 1454 1453 1451 1449 1447 1445 1443 1442 1440 1438 1437 1435 1433 1432 1430 1428 1426
1430 1431 1433 1434 1435 1436 1438 1440 1442 1444 1446 1447 1449 1450 1452 1453 1453 1454 1454 1455 1454 1454 1454 1454 1453 1451 1450 1448 1446 1444 1442 1440 1438 1436 1434 1432 1431 1429 1427 1425 1423 1422 1420
1428 1429 1431 1432 1433 1434 1436 1438 1440 1442 1443 1445 1446 1447 1449 1450 1450 1451 1451 1451 1451 1451 1450 1449 1448 1447 1445 1443 1440 1438 1436 1434 1432 1430 1428 1426 1424 1422 1420 1418 1416 1415 1413
1427 1428 1429 1430 1431 1432 1434 1436 1437 1439 1441 1442 1443 1445 1446 1446 1447 1448 1448 1448 1448 1447 1446 1445 1444 1442 1439 1437 1435 1433 1431 1428 1426 1424 1422 1420 1418 1416 1414 1412 1410 1409 1406
1425 1426 1427 1428 1429 1430 1432 1433 1435 1437 1438 1439 1441 1442 1442 1443 1444 1444 1445 1445 1444 1443 1442 1441 1439 1436 1434 1432 1430 1428 1425 1423 1420 1418 1416 1414 1412 1409 1407 1406 1404 1403 1400
1423 1424 1425 1426 1427 1428 1430 1431 1433 1434 1436 1437 1438 1439 1440 1440 1441 1441 1441 1440 1440 1439 1437 1436 1434 1431 1429 1427 1425 1422 1420 1417 1414 1412 1410 1407 1405 1403 1401 1399 1397 1396 1394
1421 1422 1423 1424 1425 1427 1428 1429 1431 1432 1434 1435 1435 1436 1437 1437 1437 1437 1437 1436 1436 1435 1433 1431 1429 1427 1424 1422 1419 1417 1414 1411 1409 1406 1404 1402 1399 1397 1395 1393 1391 1389 1387
1419 1420 1421 1422 1423 1425 1426 1428 1429 1430 1431 1432 1433 1434 1434 1434 1434 1434 1433 1432 1431 1430 1429 1427 1424 1422 1419 1417 1414 1412 1408 1406 1403 1401 1399 1397 1394 1392 1390 1388 1385 1383 1381
1417 1417 1419 1420 1422 1424 1425 1426 1427 1428 1429 1431 1431 1431 1432 1431 1431 1430 1430 1429 1428 1426 1424 1422 1420 1417 1415 1412 1410 1407 1404 1401 1398 1396 1394 1391 1389 1387 1385 1383 1380 1377 1375
1415 1416 1417 1419 1420 1422 1423 1424 1425 1426 1428 1428 1429 1429 1429 1429 1428 1427 1426 1425 1424 1422 1420 1417 1415 1413 1410 1408 1405 1402 1400 1397 1394 1391 1389 1386 1384 1382 1380 1378 1375 1372 1370
1413 1414 1416 1417 1418 1420 1421 1422 1423 1424 1425 1426 1426 1426 1426 1425 1425 1424 1423 1421 1420 1418 1415 1413 1411 1408 1406 1403 1400 1398 1395 1393 1390 1387 1384 1382 1379 1377 1374 1372 1369 1367 1365
1412 1413 1414 1415 1416 1418 1419 1420 1421 1422 1422 1423 1423 1423 1423 1422 1422 1421 1419 1418 1416 1414 1412 1409 1407 1404 1402 1399 1397 1394 1391 1388 1386 1383 1380 1377 1374 1372 1369 1366 1364 1362 1359
1412 1412 1413 1414 1415 1416 1417 1418 1419 1419 1420 1420 1421 1420 1420 1420 1419 1418 1417 1415 1413 1411 1408 1406 1404 1401 1398 1396 1393 1390 1387 1384 1381 1378 1375 1373 1370 1367 1364 1362 1359 1357 1355
1411 1411 1412 1412 1413 1414 1416 1417 1417 1418 1418 1418 1418 1418 1418 1417 1416 1415 1413 1412 1410 1408 1406 1403 1401 1398 1395 1392 1390 1387 1383 1380 1377 1374 1371 1368 1365 1362 1360 1357 1355 1353 1351
1410 1410 1411 1411 1412 1413 1414 1415 1416 1416 1416 1416 1416 1416 1415 1414 1413 1412 1410 1408 1406 1404 1402 1399 1397 1394 1392 1388 1385 1382 1379 1376 1373 1370 1367 1364 1361 1359 1356 1354 1351 1349 1347